Location: Diebersbach
(48.5163°N, 8.0558°E)
Time: 20:28:55
(UTC+00:00)

USA 229 - Pass Details

Date: 27 October 2021
Orbit: 946 x 1266 km, 63.4° (Epoch: 25 November)

Event Time Altitude Azimuth Distance (km) Brightness Sun altitude
Rises 17:01:21 0° 198° (SSW) 3,626 6.9 -8.0°
Reaches altitude 10° 17:03:55 10° 193° (SSW) 2,705 6.1 -8.5°
Maximum altitude 17:09:57 49° 120° (ESE) 1,279 3.8 -9.4°
Drops below altitude 10° 17:16:25 10° 48° (NE) 2,897 5.5 -10.5°
Enters shadow 17:17:36 - 46° (NE) 3,315 5.8 -10.7°
